Starlink 32587

operational
NORAD ID: 62180 Int'l Des: 2024-225 Owner: SPXS Country: US Constellation: starlink
LEOCIRCULAR

Über Starlink 32587

Beschreibung wird geladen...

Live-Position

3D-Globus wird geladen...

Nächste Überflüge

Höhenverlauf

Altitude vs Time

uPlot chart will show altitude changes over time

Zweizeiliger Elementsatz

1 62180U 24225T 26035.01761681 .00010870 00000-0 91721-3 0 9997
2 62180 69.9985 249.1701 0003052 268.6216 91.4593 14.98338631 64838
Epoch: 4. Feb. 2026 • Age: 13 hours

Aktueller Status

Höhe 580.1 km
Geschwindigkeit 7.57 km/s
Subsatellitenpunkt 46.44°N, 63.38°E
Startdatum 30. Nov. 2024
Alter 1.1 years
Typ internet

Technische Details

Klassifizierung Payload
Masse 730.00 kg
Trockenmasse 700.00 kg
Gesamtmasse 730.00 kg
Länge 0.30 m
Durchmesser 4.10 m
Spannweite 29.00 m
Form Box + pan
Hersteller SPXS
Bus-Typ Starlink V2M
Phasenstatus In Orbit
Besitzer/Staat SPXS/US

Große Konstellationen

Loading constellations...